EHI
3 1 0 0 0 0 0 0 0 0 0 0 0 0 0 0 0 0 0 0 0 0 0 0 0 0 0 0 1 2 2 1 0 0 0 0 0 0 0 1 1 1 0 0 0 0 0 0 0
1 1 0 0 0 0 0 0 0 0 0 0 0 0 0 0 0 0 0 0 0 0 0 0 0 0 0 0 0 1 1 0 0 0 0 0 0 0 0 0 0 0 0 0 0 0 0 0 0
1 1 0 0 0 0 0 0 0 0 0 0 0 0 0 0 0 0 0 0 0 0 0 0 0 0 0 0 0 0 0 0 0 0 0 0 0 0 0 0 0 0 0 0 0 0 0 0 0
0 0 0 0 0 0 0 0 0 0 0 0 0 0 0 0 0 0 0 0 0 0 0 0 0 1 1 1 0 0 0 0 0 0 0 0 0 0 0 0 0 0 0 0 0 0 0 0 0
0 0 0 0 0 0 0 0 0 0 0 0 0 0 0 0 0 0 0 0 0 0 0 0 1 2 2 2 1 0 0 0 0 0 0 0 1 1 0 0 0 0 0 0 0 0 0 0 0
0 0 0 0 0 0 0 0 0 0 0 0 0 0 0 0 1 1 0 0 0 0 0 0 1 2 3 2 1 0 1 1 0 0 0 1 2 2 1 0 0 0 0 0 0 0 0 0 1
0 0 0 0 0 0 0 0 0 0 0 0 0 0 0 0 0 1 1 1 1 1 0 0 0 1 2 2 1 1 1 1 0 0 0 1 2 3 1 0 0 0 0 0 0 0 0 1 2
0 0 0 0 0 0 0 0 0 0 0 0 0 0 0 0 0 1 2 3 2 2 1 0 0 0 1 1 1 1 1 0 0 0 0 1 2 3 2 0 0 0 0 0 0 0 1 1 2
0 0 0 0 0 0 0 0 0 0 0 0 1 1 1 1 1 3 4 3 3 3 2 1 1 0 0 0 0 0 0 0 0 0 0 0 1 2 1 0 0 0 0 0 0 0 0 0 1
0 0 0 0 0 0 0 0 0 0 0 1 2 2 2 2 2 4 5 4 3 3 3 2 1 0 0 0 0 0 0 0 0 0 0 0 0 0 0 0 0 0 0 0 0 0 0 0 0
0 0 0 0 0 0 0 0 0 0 0 1 2 3 3 3 3 4 4 4 3 4 4 2 1 0 0 0 0 0 0 0 0 0 0 0 0 0 0 0 0 0 0 0 0 0 0 0 0
0 0 0 0 0 0 0 0 0 0 0 0 2 4 4 3 3 2 3 3 3 3 3 2 0 0 0 0 0 0 0 0 0 0 0 0 0 0 0 0 0 0 0 0 0 0 0 0 0
0 0 0 0 0 1 0 0 0 0 0 0 2 4 4 3 3 2 2 1 2 3 3 2 1 0 0 0 0 0 0 0 0 0 0 0 0 0 0 0 0 0 0 0 0 0 0 0 0
0 0 0 0 0 0 0 0 0 0 0 1 2 4 4 3 3 2 1 1 1 1 2 3 2 1 0 0 0 0 0 0 0 0 0 0 0 0 0 0 0 0 0 0 0 0 0 0 0
0 0 0 0 0 0 0 0 0 0 0 1 2 4 4 3 2 1 1 0 0 1 2 2 2 2 1 0 0 0 0 0 0 0 0 0 0 0 0 0 0 0 0 0 0 0 0 0 0
0 0 0 0 0 0 0 0 0 0 0 1 2 3 3 2 1 0 0 0 1 2 2 1 1 2 1 0 0 0 0 0 0 0 0 0 0 0 0 0 0 0 0 0 0 0 0 0 0
0 0 0 0 0 0 0 0 0 0 0 0 1 3 2 1 0 0 0 0 1 2 2 1 1 2 1 0 0 0 0 0 0 0 0 0 0 0 0 0 0 0 0 0 0 0 0 0 0
0 0 0 0 0 0 0 0 0 0 0 0 1 2 2 1 0 0 0 0 1 2 2 1 1 2 1 0 0 0 0 0 0 0 0 0 0 0 0 0 0 0 0 0 0 0 0 0 0
0 0 0 0 0 0 0 0 0 0 0 0 0 1 2 1 0 0 0 0 2 3 2 1 1 1 0 0 0 0 0 0 0 0 0 0 0 0 0 0 0 0 0 0 0 0 0 0 0
0 0 0 0 0 0 0 0 0 0 0 0 0 1 1 0 0 0 0 0 1 2 3 3 2 2 1 0 0 0 0 0 0 0 0 0 0 0 0 0 0 0 0 0 0 0 0 0 0
0 0 0 0 0 0 0 0 0 0 0 0 0 0 0 0 1 2 1 1 1 1 2 3 3 3 1 1 1 1 0 0 0 0 0 0 0 0 0 0 0 0 0 0 0 0 0 0 0
0 0 0 0 0 0 0 0 0 0 0 0 0 0 0 1 2 3 3 2 2 1 1 2 3 3 3 3 2 2 1 0 0 0 0 0 0 0 0 0 0 0 0 0 0 0 0 0 0
0 0 0 0 0 0 0 0 0 0 0 0 0 0 0 1 2 3 3 3 3 2 1 2 4 4 4 4 3 3 1 0 0 0 0 0 0 0 0 0 0 0 0 0 0 0 0 0 0
0 0 0 0 0 0 0 0 0 0 0 0 0 0 0 0 1 3 3 3 3 3 2 4 6 4 4 3 3 3 2 1 0 0 0 0 0 0 0 0 0 0 0 0 0 0 0 0 0
0 0 0 0 0 0 0 0 0 0 0 0 0 0 0 0 1 2 3 3 3 3 4 6 6 4 3 4 4 4 3 2 1 0 0 0 0 0 0 0 0 0 0 0 0 0 0 0 0
0 0 0 0 0 0 0 0 0 0 0 0 0 0 0 0 1 2 3 3 3 3 4 5 5 4 4 5 5 5 4 3 2 1 0 0 0 0 0 0 0 0 0 0 0 0 0 0 0
0 0 0 0 0 0 0 0 0 0 0 0 0 0 0 0 0 1 3 3 3 3 3 3 3 4 5 6 6 6 5 4 3 1 0 0 0 0 0 0 0 0 0 0 0 0 0 0 0
0 0 0 0 0 0 0 0 0 0 0 0 0 0 0 0 0 1 2 3 3 3 2 2 3 4 6 6 6 5 4 3 3 2 1 0 0 0 0 0 0 0 0 0 0 0 0 0 0
0 0 0 0 0 0 0 0 0 0 0 0 0 0 0 0 0 1 2 3 3 3 2 1 3 5 6 5 4 4 3 3 3 2 1 0 0 0 0 0 0 0 0 0 0 0 0 0 0
0 0 0 0 0 0 0 0 0 0 0 0 0 0 0 0 0 0 1 3 3 3 2 1 2 5 6 5 4 3 3 3 3 2 1 0 0 0 0 0 0 0 0 0 0 0 0 0 0
Wind_Speed
4 2 3 4 7 6 3 0 2 3 4 5 8 9 8 5 4 5 2 6 8 5 3 4 7 8 8 9 9 9 10 10 10 11 11 11 11 11 11 11 11 11 11 12 12 12 12 12 12
1 1 4 5 6 4 1 1 4 4 6 7 7 7 7 5 4 5 3 6 8 6 4 5 7 8 8 9 9 9 10 10 10 11 11 11 11 11 11 11 11 11 11 11 11 11 11 11 11
1 2 4 5 4 4 3 2 5 4 5 5 5 5 5 4 4 4 5 9 7 5 4 5 8 8 8 8 9 9 9 9 10 10 11 10 11 11 11 11 10 10 10 10 11 10 11 11 11
3 5 5 5 3 3 5 4 5 6 6 5 6 5 4 3 4 6 9 9 8 5 4 5 8 8 8 8 8 9 9 9 10 10 10 10 10 10 11 11 11 10 10 10 10 10 10 10 10
4 5 5 3 2 1 2 4 5 6 4 5 7 6 3 2 7 10 9 8 8 5 3 5 8 8 7 8 8 9 9 9 9 10 10 10 10 10 10 10 10 10 10 9 9 9 9 10 10
4 5 5 2 2 2 2 4 7 8 7 6 7 6 2 2 7 8 8 7 7 6 4 4 7 8 7 7 7 8 9 9 9 9 9 10 10 10 9 9 9 9 9 9 8 8 9 9 9
4 4 3 3 3 2 3 4 6 7 6 5 7 6 3 2 5 8 8 7 6 6 4 3 3 4 5 5 7 8 9 9 9 9 9 9 9 9 9 8 9 8 8 8 8 8 8 8 8
5 5 3 2 3 2 2 3 5 8 5 6 6 8 5 6 5 7 7 6 6 5 4 3 2 2 2 3 7 9 9 8 8 8 8 8 8 8 8 7 7 7 8 8 8 7 7 8 8
4 5 2 2 4 2 3 5 2 4 6 3 4 6 8 9 8 7 6 4 4 5 3 3 3 2 2 2 5 6 7 6 6 5 7 6 3 3 3 5 6 6 7 7 7 7 7 7 7
5 3 2 2 4 3 3 5 4 5 6 5 5 5 9 9 9 8 7 6 5 5 4 3 3 3 2 2 3 2 2 2 3 3 3 2 2 2 3 4 5 6 7 6 7 7 6 5 3
3 3 1 1 3 4 3 3 4 7 4 7 10 11 10 9 8 8 7 6 6 6 6 5 4 3 3 2 2 1 1 2 2 2 2 2 2 2 2 2 2 3 4 3 4 4 3 3 3
2 1 1 1 1 4 3 3 3 4 6 9 12 13 11 10 9 9 8 6 5 6 6 5 5 4 3 3 2 2 2 1 1 2 2 2 2 2 1 1 2 2 2 2 3 2 3 4 3
2 1 1 2 3 3 4 3 4 2 3 8 10 11 10 9 8 6 6 6 6 6 5 6 6 5 3 3 2 2 2 2 2 2 2 3 2 2 2 1 1 2 2 2 3 3 3 3 3
3 2 1 1 2 2 5 2 3 2 6 9 9 9 9 8 7 6 6 5 6 6 6 5 6 5 5 3 3 2 2 2 2 2 2 3 3 3 2 2 2 2 2 2 2 3 3 3 3
2 2 2 1 1 2 5 3 1 3 7 9 8 8 7 7 7 8 8 7 6 6 6 6 7 6 5 4 3 3 2 3 2 2 2 3 3 3 3 2 2 1 2 2 3 3 3 3 3
3 3 0 3 2 2 5 2 4 2 7 7 7 6 6 5 6 7 7 6 6 6 6 6 7 6 5 4 3 3 2 3 2 2 2 3 3 4 3 2 2 1 2 2 3 2 3 3 2
3 1 2 3 2 3 4 3 4 3 6 6 6 6 5 4 3 4 6 7 6 6 7 6 6 6 5 4 3 3 3 2 2 2 2 2 3 3 3 2 2 2 2 2 2 2 2 2 2
3 3 2 3 2 4 3 2 2 3 5 5 5 6 6 6 5 5 5 6 6 5 5 6 6 5 5 4 3 2 2 2 1 2 2 3 2 3 4 3 2 3 3 2 2 3 2 2 2
3 2 2 3 2 3 3 3 3 3 3 4 4 5 6 6 5 5 5 6 6 5 5 4 5 5 4 3 3 2 2 1 1 1 2 3 3 3 3 3 3 2 2 2 3 3 3 2 2
2 2 2 2 2 3 3 3 4 4 6 7 7 7 7 6 4 4 5 5 5 6 5 5 5 5 5 4 3 3 3 2 1 1 1 2 3 3 4 4 3 2 2 2 2 3 2 1 2
3 5 4 4 1 2 3 3 4 3 3 5 6 6 7 9 8 6 5 5 5 5 5 5 5 5 4 4 3 3 2 2 1 0 0 1 2 2 3 4 3 3 3 2 2 3 3 2 0
3 5 5 4 2 2 3 2 6 4 3 4 5 5 6 6 6 6 6 5 6 6 6 6 6 5 4 4 4 5 4 3 3 3 2 2 2 2 3 3 3 3 3 3 3 2 2 3 1
5 4 3 3 3 1 1 2 6 2 4 6 7 7 7 6 7 7 7 7 6 6 6 5 5 5 4 4 5 5 3 3 2 1 2 2 1 2 2 3 3 3 3 3 3 2 2 2 2
3 2 3 4 3 2 5 4 6 5 8 7 7 7 8 7 6 6 5 5 4 3 4 4 5 4 4 4 4 5 5 3 3 2 3 2 1 1 2 2 2 3 3 3 3 3 3 2 2
4 5 3 4 2 5 3 3 7 7 6 8 9 8 7 7 7 6 5 5 4 4 4 4 5 4 3 4 4 4 5 5 5 4 4 3 2 2 2 2 2 2 3 3 3 3 3 3 3
3 8 6 4 4 5 2 4 6 4 3 4 6 7 6 6 7 7 7 6 6 5 5 5 4 3 3 3 4 4 4 3 3 4 4 4 4 3 3 3 3 2 2 2 2 2 2 2 2
3 3 6 5 1 2 4 4 4 1 2 3 5 5 6 7 7 7 6 6 6 5 5 5 5 3 3 3 3 3 3 3 3 3 3 3 3 3 4 4 3 2 2 2 3 2 2 2 2
5 5 5 4 2 3 4 3 4 4 4 3 4 5 6 6 6 6 6 6 5 5 5 4 5 4 3 3 3 2 2 3 3 3 3 3 3 3 4 3 3 3 2 2 2 2 2 2 1
1 2 3 3 4 4 3 6 5 7 7 6 6 6 6 6 7 6 6 5 4 4 4 4 3 3 2 3 3 2 2 2 1 2 3 3 2 3 4 4 4 3 3 3 3 2 2 2 1
4 5 6 4 4 4 3 7 4 5 6 6 5 5 5 6 6 6 6 5 4 4 4 3 3 3 3 3 2 3 2 2 2 2 2 2 2 3 3 4 4 3 3 3 3 3 2 2 2
Wind_Direction
312 353 78 58 56 56 71 49 117 74 62 63 75 84 84 67 90 129 199 135 133 134 128 110 100 96 95 96 95 94 95 93 90 90 90 90 89 87 88 89 90 91 91 89 87 86 84 83 84
345 40 62 59 79 81 37 122 97 99 130 114 82 82 80 74 88 113 123 138 134 132 129 114 107 100 99 98 95 95 96 97 95 93 94 94 92 89 89 90 90 92 90 89 88 86 86 84 82
347 67 77 69 92 137 150 176 123 93 106 100 82 61 78 109 109 129 149 142 131 126 126 120 113 107 103 103 100 98 98 101 99 97 97 95 96 93 90 90 90 91 91 91 89 86 85 86 82
63 46 58 78 109 174 160 176 125 96 71 70 95 66 55 92 131 136 135 134 129 128 129 126 120 114 109 108 107 104 103 104 104 100 98 97 95 93 90 89 89 90 92 91 92 89 87 86 81
65 72 67 78 108 141 145 146 112 104 95 85 93 91 60 33 111 127 133 135 132 134 135 134 125 120 117 115 114 111 108 108 106 103 100 99 97 93 90 91 92 90 91 92 91 90 89 88 83
58 69 85 100 102 99 111 117 103 99 107 106 101 107 110 133 124 137 140 137 137 139 136 132 130 127 125 121 122 120 115 112 109 106 102 98 96 95 95 96 95 93 92 94 93 89 91 90 86
99 90 118 129 112 98 125 116 116 124 127 134 127 108 130 178 151 145 137 132 131 132 126 117 123 125 128 124 126 127 119 113 109 107 104 98 95 94 95 96 95 93 89 90 93 93 91 88 86
120 98 78 96 118 135 142 117 129 125 125 132 121 131 163 194 159 134 125 124 126 131 132 127 114 102 89 97 120 123 118 114 110 103 103 99 95 94 95 95 94 92 88 83 86 91 88 86 87
83 77 94 156 149 159 132 102 87 102 106 99 109 150 164 158 138 123 117 112 126 137 139 140 133 121 102 101 111 115 116 110 103 99 103 95 77 78 83 90 88 88 85 85 84 80 82 83 80
85 109 205 201 159 147 130 121 119 84 86 83 84 105 133 139 139 137 139 145 148 155 160 153 152 155 137 118 94 85 96 93 90 92 90 83 81 77 84 78 80 77 76 77 79 76 75 74 68
120 160 204 87 128 123 113 100 98 112 128 160 154 152 151 147 148 151 157 160 163 162 161 160 159 153 139 116 112 86 86 88 88 99 105 97 81 65 55 50 47 45 55 54 58 60 65 81 86
117 215 173 144 100 111 121 118 102 143 184 176 162 158 156 156 161 165 168 170 158 152 160 161 156 145 142 123 118 118 111 103 103 108 117 111 103 89 78 62 48 45 47 53 50 63 72 81 86
138 193 158 145 106 109 107 115 127 151 153 150 147 152 159 168 169 167 169 164 149 152 159 160 155 151 143 123 126 120 124 131 130 122 129 127 121 117 107 85 61 55 59 64 63 66 76 82 87
190 166 122 104 115 118 111 97 101 183 142 144 150 163 172 172 163 153 157 157 155 154 155 155 150 148 136 130 125 130 126 122 114 119 130 132 127 123 117 99 75 64 68 78 82 84 87 82 84
143 107 34 323 153 140 102 52 203 193 150 150 163 169 165 165 158 159 165 166 163 155 148 147 147 138 138 138 138 130 122 114 113 119 119 123 125 124 120 109 94 84 87 85 80 74 76 75 72
61 66 9 273 176 159 125 197 254 187 142 153 170 169 156 158 163 166 159 155 159 149 141 145 144 139 142 140 134 124 116 111 108 106 107 113 124 129 120 114 113 112 92 83 86 74 76 71 72
38 130 228 272 213 145 136 200 244 174 143 157 168 163 153 145 154 163 157 155 155 153 143 143 140 145 145 137 125 115 111 109 110 102 105 110 121 123 119 120 121 110 92 81 95 86 98 98 81
211 202 207 226 225 138 145 208 233 186 155 164 170 165 162 163 179 169 158 155 146 148 143 142 137 139 135 125 109 93 85 85 89 104 116 114 120 120 114 116 116 109 99 84 87 91 81 99 103
186 186 217 244 212 140 164 205 227 207 166 173 179 172 166 178 186 161 156 154 141 141 136 142 141 148 141 138 135 132 145 150 126 141 134 123 128 129 119 118 119 117 121 130 122 108 92 70 83
194 205 249 268 225 150 176 231 241 202 191 189 186 181 179 176 163 164 162 150 150 156 153 147 157 162 162 163 166 162 158 168 176 160 139 140 137 143 137 135 141 139 124 116 120 115 109 91 89
210 191 209 206 274 58 109 310 283 259 208 189 185 184 180 175 172 175 167 159 151 159 166 165 167 164 168 159 130 106 78 61 54 74 209 203 158 156 149 148 149 151 143 153 159 143 134 141 86
222 222 202 177 124 245 158 247 270 242 221 201 197 191 189 184 170 168 163 162 170 179 178 169 169 165 163 148 146 150 155 174 205 201 199 203 175 161 159 157 159 160 157 162 177 160 150 141 157
208 226 204 192 163 252 221 186 272 216 221 222 206 194 190 187 173 170 173 175 179 176 172 167 160 161 165 163 164 162 170 192 187 168 179 195 204 182 169 167 165 167 168 173 171 152 153 155 164
167 41 21 46 80 266 229 182 262 222 212 208 202 194 187 182 177 176 178 169 163 154 151 154 157 166 173 173 167 170 178 180 167 177 187 200 205 204 188 171 169 174 174 180 182 174 168 173 170
92 84 32 1 5 255 246 187 243 240 216 195 189 191 186 177 174 175 171 163 156 155 158 155 154 168 178 180 182 185 188 182 185 190 190 186 186 199 203 177 171 174 184 185 177 171 180 177 175
169 143 157 194 225 277 306 228 254 259 206 170 168 177 176 174 176 177 180 173 167 162 160 156 157 172 179 185 196 199 190 184 190 193 187 192 194 196 192 182 177 178 180 177 170 172 189 180 186
153 176 174 150 233 282 284 288 308 5 92 137 150 168 180 183 184 182 177 171 168 164 167 166 167 178 187 189 187 187 190 186 191 196 194 196 196 187 181 179 177 180 174 167 159 165 187 178 190
162 155 101 124 176 262 282 254 242 230 211 185 167 175 188 183 184 181 178 175 175 175 174 169 169 178 186 187 190 186 193 199 190 178 190 195 200 189 173 180 179 176 172 165 154 164 177 161 187
147 143 134 142 164 173 254 266 234 207 196 189 194 189 182 183 181 180 179 176 171 163 162 168 175 170 169 183 193 186 193 197 175 177 196 201 201 189 182 182 179 179 179 171 158 168 164 167 191
183 187 158 165 227 188 200 265 278 196 186 182 188 193 189 180 177 171 169 164 164 167 168 173 179 175 179 179 176 184 183 177 184 208 210 196 195 194 189 179 170 174 176 167 165 177 170 166 177